WX2NJ Weather Reports


Display with metric or nautical units.
time (UTC)temp
F
wind
direction
speed
MPH
gust
MPH
rain 1hr
in
rain 24hr
in
rain mn
in
humidity
%
barometer
mb
20260503232042 57 125 3.0 3.0 0.00 0.00 0.00 33 1015.5
20260503231539 57 140 0.0 3.0 0.00 0.00 0.00 33 1015.5
20260503231036 57 126 0.0 3.0 0.00 0.00 0.00 32 1015.4
20260503230532 58 145 1.0 2.0 0.00 0.00 0.00 31 1015.5
20260503230030 58 195 0.0 4.0 0.00 0.00 0.00 31 1015.5
20260503225527 58 160 0.0 2.0 0.00 0.00 0.00 31 1015.6
20260503225022 58 188 3.0 3.0 0.00 0.00 0.00 29 1015.4
20260503224520 59 187 0.0 4.0 0.00 0.00 0.00 30 1015.4
20260503224017 59 177 0.0 4.0 0.00 0.00 0.00 31 1015.3
20260503223515 59 141 2.0 5.0 0.00 0.00 0.00 28 1015.5
20260503223010 59 204 2.0 6.0 0.00 0.00 0.00 28 1015.3
20260503222509 59 172 0.0 5.0 0.00 0.00 0.00 29 1015.2
20260503222007 59 178 4.0 8.0 0.00 0.00 0.00 28 1015.3
20260503221505 59 256 5.0 11.0 0.00 0.00 0.00 27 1015.3
20260503221002 60 135 2.0 6.0 0.00 0.00 0.00 27 1015.1
20260503220458 60 277 1.0 3.0 0.00 0.00 0.00 29 1015.2
20260503215954 60 254 3.0 6.0 0.00 0.00 0.00 26 1015.0
20260503215451 60 174 3.0 5.0 0.00 0.00 0.00 27 1015.3
20260503214949 61 273 3.0 6.0 0.00 0.00 0.00 26 1015.1
20260503214447 61 308 2.0 4.0 0.00 0.00 0.00 27 1015.1
20260503213944 62 176 2.0 11.0 0.00 0.00 0.00 26 1015.2
20260503213442 62 255 1.0 4.0 0.00 0.00 0.00 25 1014.9
20260503212938 62 182 3.0 9.0 0.00 0.00 0.00 25 1015.2
20260503212435 62 180 3.0 4.0 0.00 0.00 0.00 25 1015.0
20260503211933 62 334 2.0 3.0 0.00 0.00 0.00 26 1015.0
20260503211430 61 194 0.0 8.0 0.00 0.00 0.00 27 1014.9
20260503210924 62 225 2.0 7.0 0.00 0.00 0.00 27 1015.0
20260503210422 61 187 1.0 4.0 0.00 0.00 0.00 27 1015.1
20260503205917 62 239 2.0 7.0 0.00 0.00 0.00 25 1015.1
20260503205414 62 247 5.0 11.0 0.00 0.00 0.00 26 1015.0
20260503204910 62 165 1.0 5.0 0.00 0.00 0.00 25 1014.8
20260503204408 62 211 3.0 4.0 0.00 0.00 0.00 27 1014.9
20260503203905 61 180 3.0 10.0 0.00 0.00 0.00 26 1014.8
20260503203402 62 126 1.0 11.0 0.00 0.00 0.00 27 1014.9
20260503202859 62 299 3.0 9.0 0.00 0.00 0.00 25 1014.9
20260503202357 62 229 3.0 17.0 0.00 0.00 0.00 27 1014.9
20260503201855 62 168 0.0 6.0 0.00 0.00 0.00 26 1014.9
20260503201352 62 278 1.0 9.0 0.00 0.00 0.00 27 1014.9
20260503200849 62 151 3.0 5.0 0.00 0.00 0.00 25 1015.0
20260503200345 61 222 3.0 8.0 0.00 0.00 0.00 27 1015.1
20260503195842 62 244 7.0 8.0 0.00 0.00 0.00 26 1015.3
20260503195339 60 150 4.0 13.0 0.00 0.00 0.00 28 1015.1
20260503194836 62 11 4.0 9.0 0.00 0.00 0.00 27 1015.2
20260503194332 61 6 1.0 4.0 0.00 0.00 0.00 30 1015.2
20260503193828 61 198 1.0 11.0 0.00 0.00 0.00 29 1015.4
20260503193324 62 336 2.0 12.0 0.00 0.00 0.00 28 1015.4
20260503192820 62 138 0.0 6.0 0.00 0.00 0.00 28 1015.4
20260503192316 61 255 1.0 8.0 0.00 0.00 0.00 30 1015.5
20260503191812 61 281 0.0 9.0 0.00 0.00 0.00 29 1015.4
20260503191310 59 135 2.0 3.0 0.00 0.00 0.00 31 1015.5
20260503190806 62 6 1.0 3.0 0.00 0.00 0.00 30 1015.6
20260503190303 60 173 1.0 6.0 0.00 0.00 0.00 29 1015.7
20260503185801 61 245 2.0 6.0 0.00 0.00 0.00 30 1015.6
20260503185256 60 327 2.0 7.0 0.00 0.00 0.00 32 1015.7
20260503184755 59 110 2.0 13.0 0.00 0.00 0.00 31 1015.7
20260503184252 59 233 2.0 5.0 0.00 0.00 0.00 33 1015.8
20260503183748 61 301 3.0 12.0 0.00 0.00 0.00 32 1015.7
20260503183246 61 280 0.0 7.0 0.00 0.00 0.00 30 1015.7
20260503182743 60 327 4.0 8.0 0.00 0.00 0.00 32 1015.9
20260503182242 58 204 2.0 10.0 0.00 0.00 0.00 32 1016.0
20260503181739 57 111 1.0 6.0 0.00 0.00 0.00 33 1015.8
20260503181236 60 152 2.0 14.0 0.00 0.00 0.00 29 1015.7
20260503180732 58 185 3.0 11.0 0.00 0.00 0.00 32 1016.1
20260503180231 58 248 2.0 8.0 0.00 0.00 0.00 32 1016.0
20260503175727 57 164 3.0 8.0 0.00 0.00 0.00 33 1016.0
20260503175225 57 158 3.0 6.0 0.00 0.00 0.00 37 1016.0
20260503174720 56 172 3.0 8.0 0.00 0.00 0.00 36 1016.0
20260503174219 56 70 0.0 8.0 0.00 0.00 0.00 34 1015.9
20260503173714 55 339 0.0 7.0 0.00 0.00 0.00 36 1016.1
20260503173210 57 215 1.0 6.0 0.00 0.00 0.00 33 1016.0
20260503172707 58 144 2.0 13.0 0.00 0.00 0.00 34 1016.2
20260503172204 59 219 4.0 6.0 0.00 0.00 0.00 33 1015.6
20260503171700 58 248 2.0 6.0 0.00 0.00 0.00 35 1015.8
20260503171158 57 32 5.0 6.0 0.00 0.00 0.00 34 1016.0
20260503170654 58 206 2.0 5.0 0.00 0.00 0.00 34 1016.0
20260503170151 58 174 5.0 12.0 0.00 0.00 0.00 34 1016.0
20260503160113 56 292 2.0 10.0 0.00 0.00 0.00 37 1016.1
20260503150543 56 232 4.0 5.0 0.00 0.00 0.00 39 1016.4
20260503130933 50 85 4.0 4.0 0.00 0.00 0.00 53 1016.2
20260503130431 50 102 0.0 6.0 0.00 0.00 0.00 54 1016.3
20260503110823 46 144 0.0 3.0 0.00 0.00 0.00 62 1015.3
20260503110320 46 180 0.0 4.0 0.00 0.00 0.00 62 1015.3
20260503100246 43 157 0.0 2.0 0.00 0.00 0.00 70 1014.3
20260503090206 41 151 1.0 2.0 0.00 0.00 0.00 73 1013.6
20260503081636 42 127 2.0 2.0 0.00 0.00 0.00 72 1013.4
20260503081133 42 148 1.0 1.0 0.00 0.00 0.00 71 1013.2
20260503080629 43 157 0.0 1.0 0.00 0.00 0.00 71 1013.4
20260503080126 43 168 0.0 1.0 0.00 0.00 0.00 70 1013.3
20260503072603 46 145 1.0 1.0 0.00 0.00 0.00 65 1013.3
20260503072100 46 157 0.0 2.0 0.00 0.00 0.00 65 1013.5
20260503071556 46 117 0.0 2.0 0.00 0.00 0.00 64 1013.4
20260503071054 47 145 0.0 2.0 0.00 0.00 0.00 63 1013.4
20260503070550 47 195 0.0 2.0 0.00 0.00 0.00 63 1013.4
20260503055003 48 114 1.0 1.0 0.00 0.00 0.00 64 1013.7
20260503054459 48 114 0.0 1.0 0.00 0.00 0.00 65 1013.7
20260503053957 48 194 0.0 0.0 0.00 0.00 0.00 64 1013.7
20260503053455 48 129 0.0 3.0 0.00 0.00 0.00 64 1013.7
20260503052951 48 154 1.0 2.0 0.00 0.00 0.00 66 1013.9
20260503052449 48 212 0.0 2.0 0.00 0.00 0.00 65 1013.6
20260503051945 48 120 0.0 2.0 0.00 0.00 0.00 66 1013.7
20260503051441 48 188 0.0 1.0 0.00 0.00 0.00 67 1013.8
20260503050938 48 106 0.0 2.0 0.00 0.00 0.00 67 1013.8
20260503050433 48 105 0.0 2.0 0.00 0.00 0.00 67 1013.9
20260503045932 48 165 0.0 1.0 0.00 0.00 0.00 66 1013.7
20260503045429 48 114 0.0 2.0 0.00 0.00 0.00 67 1013.8
20260503044926 48 180 0.0 1.0 0.00 0.00 0.00 67 1013.8
20260503044422 48 126 1.0 1.0 0.00 0.00 0.00 67 1014.0
20260503043920 48 165 0.0 3.0 0.00 0.00 0.00 68 1013.9
20260503043416 48 123 0.0 2.0 0.00 0.00 0.00 68 1014.1
20260503042913 48 172 0.0 2.0 0.00 0.00 0.00 69 1014.3
20260503042410 48 101 2.0 2.0 0.00 0.00 0.00 71 1014.1
20260503041906 48 135 0.0 2.0 0.00 0.00 0.00 71 1014.5
20260503041403 48 158 0.0 2.0 0.00 0.00 0.00 71 1014.3
20260503040900 48 132 0.0 2.0 0.00 0.00 0.00 71 1014.4
20260503040358 48 162 0.0 2.0 0.00 0.00 0.00 73 1014.3
20260503035854 48 175 0.0 1.0 0.00 0.00 0.00 73 1014.4
20260503035351 47 164 0.0 2.0 0.00 0.00 0.00 74 1014.2
20260503034849 47 144 2.0 3.0 0.00 0.00 0.00 76 1014.1
20260503034346 47 120 0.0 2.0 0.00 0.00 0.00 78 1014.2
20260503033843 47 139 2.0 2.0 0.00 0.00 0.00 81 1014.1
20260503033341 46 180 0.0 1.0 0.00 0.00 0.00 83 1014.1
20260503032838 46 105 0.0 1.0 0.00 0.00 0.00 85 1014.2
20260503032337 47 160 0.0 2.0 0.00 0.00 0.00 86 1014.3
20260503031834 47 120 0.0 2.0 0.00 0.00 0.00 86 1014.3
20260503031332 47 173 0.0 2.0 0.00 0.00 0.00 87 1014.5
20260503030828 48 169 1.0 2.0 0.00 0.00 0.00 87 1014.3
20260503030325 48 157 0.0 1.0 0.00 0.00 0.00 87 1014.1
20260503025821 48 154 0.0 2.0 0.00 0.00 0.00 87 1014.4
20260503025319 48 168 1.0 2.0 0.00 0.00 0.00 87 1014.0
20260503024816 48 187 0.0 1.0 0.00 0.00 0.00 87 1014.2
20260503024312 48 160 0.0 1.0 0.00 0.00 0.00 87 1014.0
20260503023809 48 114 0.0 1.0 0.00 0.00 0.00 87 1014.1
20260503023306 48 180 1.0 1.0 0.00 0.00 0.00 88 1014.1
20260503022803 48 151 0.0 0.0 0.00 0.00 0.00 87 1014.3
20260503022257 48 120 0.0 0.0 0.00 0.00 0.00 87 1014.2
20260503021754 48 157 0.0 1.0 0.00 0.00 0.00 87 1014.3
20260503021250 48 203 0.0 2.0 0.00 0.00 0.00 87 1014.4
20260503020748 48 187 0.0 0.0 0.00 0.00 0.00 87 1014.7
20260503020246 48 188 2.0 3.0 0.00 0.00 0.00 87 1014.4
20260503015741 48 174 0.0 0.0 0.00 0.00 0.00 87 1014.7
20260503015238 48 188 0.0 1.0 0.00 0.00 0.00 87 1014.3
20260503014734 48 355 1.0 2.0 0.00 0.00 0.00 87 1014.3
20260503014233 48 171 2.0 2.0 0.00 0.00 0.00 87 1014.5
20260503013729 48 131 0.0 1.0 0.00 0.00 0.00 87 1014.5
20260503013227 48 166 0.0 1.0 0.00 0.00 0.00 87 1014.4
20260503012724 48 157 1.0 2.0 0.00 0.00 0.00 87 1014.5
20260503012221 48 140 1.0 1.0 0.00 0.00 0.00 87 1014.5
20260503011718 48 157 0.0 1.0 0.00 0.00 0.00 86 1014.5
20260503011215 48 154 0.0 2.0 0.00 0.00 0.00 85 1014.6
20260503010711 48 151 0.0 2.0 0.00 0.00 0.00 85 1014.3
20260503010208 49 166 1.0 2.0 0.00 0.00 0.00 85 1014.3
20260503005706 49 145 1.0 2.0 0.00 0.00 0.00 85 1014.2
20260503005203 49 139 2.0 2.0 0.00 0.00 0.00 84 1014.2
20260503004658 49 145 0.0 2.0 0.00 0.00 0.00 84 1014.1
20260503004157 50 151 0.0 1.0 0.00 0.00 0.00 84 1014.0
20260503003654 50 145 0.0 1.0 0.00 0.00 0.00 83 1014.1
20260503003151 50 151 1.0 1.0 0.00 0.00 0.00 83 1014.0
20260503002647 50 112 2.0 2.0 0.00 0.00 0.00 82 1014.0
20260503002144 50 110 2.0 2.0 0.00 0.00 0.00 82 1014.0
20260503001640 50 98 1.0 2.0 0.00 0.00 0.00 82 1013.8
20260503001137 50 144 2.0 2.0 0.00 0.00 0.00 81 1014.0
20260503000635 51 172 0.0 0.0 0.00 0.00 0.00 81 1014.0
20260503000132 51 129 2.0 4.0 0.00 0.00 0.00 80 1014.0
20260502235629 51 157 1.0 1.0 0.00 0.00 0.00 79 1014.0
20260502235127 52 145 0.0 2.0 0.00 0.00 0.00 79 1014.0
20260502234622 52 157 0.0 2.0 0.00 0.00 0.00 78 1014.0
20260502234120 53 126 0.0 2.0 0.00 0.00 0.00 77 1013.8
20260502233615 53 100 2.0 2.0 0.00 0.00 0.00 77 1014.1
20260502233113 53 113 2.0 2.0 0.00 0.00 0.00 76 1014.1
20260502232608 54 148 1.0 2.0 0.00 0.00 0.00 75 1014.1